FMNMFQMA

Guest
Details From FMNM - Philibert Tsiranana
To FQMA - Maputo
Flight Number -
Tags Generated
Created
Modified
Stats Distance 988 nm / 1,830 km
Max Altitude 0 ft / 0 m
Waypoints 3
Social Downloads 0
Likes 0
Share VATSIM

Download

Looking for another format? Having issues loading an existing format? Contact us
Advertisement - Login to hide

Notes

Generated

Route

FMNM VMA FQMA

ID Type Via Altitude Latitude Longitude Leg Dist Tot Dist Heading (true) Name
O FMNM APT - 0 ft / 0 m -15.66046˚ 46.34422˚ - 0 nm - -
VMA VOR - 0 ft / 0 m -25.86891˚ 32.60501˚ 984 nm 984 nm 229° / 234° MAPUTO VOR-DME
O FQMA APT - 0 ft / 0 m -25.92119˚ 32.56636˚ 3 nm 987 nm 214° / 214° -

Altitude Profile

Advertisement - Login to hide

Weather


0- 5 10 15 20 25 30 35+ Temperature / ° C

Clouds and Precipitation
Forecast for 2018-05-25 12:00 UTC. Updated 10 minutes ago

Ground ~20,000 ft ~40,000 ft Winds

FMNM

Details ICAO FMNM (MJN)
Name PHILIBERT TSIRANANA
Region Comoros, Mayotte, Réunion and Madagascar
Timezone Indian/Antananarivo (UTC+3.0)
Stats Elevation 87 ft / 27 m (AMSL)
Location -15.667144° 46.351829°
Runways 1
Magnetic Variation 11.247° W

METAR

FMNM 250900Z 14012KT CAVOK 31/15 Q1014 NOSIG

Decode

TAF

TAF FMNM 250500Z 2506/2606 14007KT 9999 FEW040= TAF FMMT 250500Z 2506/2606 22009KT 9999 SCT017 SCT033 PROB30 TEMPO 2603/2606 4000 SHRA

Decode

Departure Runways

ID Width Length Bearing (true) Bearing (mag) Surface Threshold Offset Overrun Length
14 148 ft / 45 m 7,235 ft / 2,205 m 132.37° 143.62° Asphalt 0 ft / 0 m 98 ft / 30 m
32 148 ft / 45 m 7,235 ft / 2,205 m 312.37° 323.62° Asphalt 0 ft / 0 m 98 ft / 30 m

FQMA

Details ICAO FQMA (MPM)
Name MAPUTO
Region Mozambique
Timezone Africa/Maputo (UTC+2.0)
Stats Elevation 145 ft / 44 m (AMSL)
Location -25.915529° 32.576901°
Runways 2
Magnetic Variation 20.247° W

METAR

FQMA 250900Z 24008KT 9999 SCT025 25/19 Q1017 NOSIG

Decode

TAF

TAF FQMA 250400Z 2506/2612 VRB03KT CAVOK BECMG 2512/2514 33005KT FEW020 BECMG 2518/2520 19010KT BECMG 2600/2602 24010KT SCT015 TX30/2513Z TN18/2603Z

Decode

Destination Runways

ID Width Length Bearing (true) Bearing (mag) Surface Threshold Offset Overrun Length
05 148 ft / 45 m 12,063 ft / 3,677 m 28.75° 49.00° Asphalt 0 ft / 0 m 238 ft / 73 m
10 148 ft / 45 m 5,560 ft / 1,695 m 86.29° 106.54° Asphalt 0 ft / 0 m 0 ft / 0 m
23 148 ft / 45 m 12,063 ft / 3,677 m 208.74° 228.99° Asphalt 0 ft / 0 m 984 ft / 300 m
28 148 ft / 45 m 5,560 ft / 1,695 m 266.28° 286.53° Asphalt 0 ft / 0 m 0 ft / 0 m

Approach Navaids

Runway Type Ident Frequency Range Bearing (true) Bearing (mag) Slope Elevation
23 Localiser IMA 110.30 MHz 18 nm / 33 km 208.75° 229.00° - 145 ft / 44 m (AMSL)
23 Glidescope IMA 110.30 MHz 10 nm / 19 km 208.75° 228.99° 3.00° 145 ft / 44 m (AMSL)